Time,TemperatureF,DewpointF,PressureIn,WindDirection,WindDirectionDegrees,WindSpeedMPH,WindSpeedGustMPH,Humidity,HourlyPrecipIn,Conditions,Clouds,dailyrainin,SoftwareType,DateUTC
2013-10-27 00:03:00,48.9,45.1,30.16,WSW,254,2.0,9.0,87,0.00,,,0.00,meteohub,2013-10-27 07:03:00,
2013-10-27 00:08:00,48.7,45.0,30.15,WSW,242,2.0,12.0,87,0.00,,,0.00,meteohub,2013-10-27 07:08:00,
2013-10-27 00:13:00,48.7,45.0,30.15,WSW,256,4.0,12.0,87,0.00,,,0.00,meteohub,2013-10-27 07:13:00,
2013-10-27 00:18:00,48.7,45.3,30.15,WSW,252,2.0,12.0,88,0.00,,,0.00,meteohub,2013-10-27 07:18:00,
2013-10-27 00:23:00,48.7,45.3,30.15,WSW,256,4.0,7.0,88,0.00,,,0.00,meteohub,2013-10-27 07:23:00,
2013-10-27 00:28:00,48.7,45.3,30.15,WSW,249,3.0,7.0,88,0.00,,,0.00,meteohub,2013-10-27 07:28:00,
2013-10-27 00:33:00,48.7,45.3,30.14,SW,223,0.0,7.0,88,0.00,,,0.00,meteohub,2013-10-27 07:33:00,
2013-10-27 00:38:00,48.7,45.3,30.15,WSW,249,5.0,6.0,88,0.00,,,0.00,meteohub,2013-10-27 07:38:00,
2013-10-27 00:43:00,48.7,45.0,30.14,WSW,251,4.0,6.0,87,0.00,,,0.00,meteohub,2013-10-27 07:43:00,
2013-10-27 00:48:00,48.9,45.5,30.14,WSW,244,7.0,7.0,88,0.00,,,0.00,meteohub,2013-10-27 07:48:00,
2013-10-27 00:53:00,48.9,45.1,30.15,NW,311,11.0,11.0,87,0.00,,,0.00,meteohub,2013-10-27 07:53:00,
2013-10-27 00:58:00,48.7,45.0,30.14,SW,233,9.0,9.0,87,0.00,,,0.00,meteohub,2013-10-27 07:58:00,
2013-10-27 01:03:00,48.7,45.0,30.14,WSW,249,5.0,13.0,87,0.00,,,0.00,meteohub,2013-10-27 08:03:00,
2013-10-27 01:09:00,48.7,45.0,30.14,West,277,5.0,13.0,87,0.00,,,0.00,meteohub,2013-10-27 08:09:00,
2013-10-27 01:14:00,48.7,44.8,30.14,West,269,4.0,13.0,86,0.00,,,0.00,meteohub,2013-10-27 08:14:00,
2013-10-27 01:19:00,48.7,44.8,30.14,WNW,290,4.0,13.0,86,0.00,,,0.00,meteohub,2013-10-27 08:19:00,
2013-10-27 01:24:00,48.6,44.6,30.13,WSW,250,0.0,13.0,86,0.00,,,0.00,meteohub,2013-10-27 08:24:00,
2013-10-27 01:29:00,48.6,44.6,30.13,WNW,288,6.0,13.0,86,0.00,,,0.00,meteohub,2013-10-27 08:29:00,
2013-10-27 01:34:00,48.6,44.6,30.12,WNW,292,2.0,7.0,86,0.00,,,0.00,meteohub,2013-10-27 08:34:00,
2013-10-27 01:39:00,48.6,44.8,30.12,West,272,4.0,7.0,87,0.00,,,0.00,meteohub,2013-10-27 08:39:00,
2013-10-27 01:44:00,48.7,45.0,30.12,WNW,293,2.0,7.0,87,0.00,,,0.00,meteohub,2013-10-27 08:44:00,
2013-10-27 01:49:00,48.7,45.0,30.12,WNW,290,3.0,7.0,87,0.00,,,0.00,meteohub,2013-10-27 08:49:00,
2013-10-27 01:54:00,48.7,45.0,30.11,WSW,257,2.0,9.0,87,0.00,,,0.00,meteohub,2013-10-27 08:54:00,
2013-10-27 01:59:00,48.7,44.8,30.11,WSW,253,1.0,9.0,86,0.00,,,0.00,meteohub,2013-10-27 08:59:00,
2013-10-27 02:04:00,48.7,44.8,30.11,West,274,6.0,11.0,86,0.00,,,0.00,meteohub,2013-10-27 09:04:00,
2013-10-27 02:09:00,48.7,44.8,30.10,WSW,254,0.0,11.0,86,0.00,,,0.00,meteohub,2013-10-27 09:09:00,
2013-10-27 02:14:00,48.6,44.6,30.09,West,281,2.0,9.0,86,0.00,,,0.00,meteohub,2013-10-27 09:14:00,
2013-10-27 02:19:00,48.6,44.6,30.09,WNW,302,1.0,9.0,86,0.00,,,0.00,meteohub,2013-10-27 09:19:00,
2013-10-27 02:24:00,48.6,44.8,30.09,WNW,287,3.0,9.0,87,0.00,,,0.00,meteohub,2013-10-27 09:24:00,
2013-10-27 02:29:00,48.6,44.8,30.08,NW,309,3.0,6.0,87,0.00,,,0.00,meteohub,2013-10-27 09:29:00,
2013-10-27 02:34:00,48.6,44.8,30.08,West,273,0.0,6.0,87,0.00,,,0.00,meteohub,2013-10-27 09:34:00,
2013-10-27 02:39:00,48.6,45.1,30.07,WSW,242,0.0,6.0,88,0.00,,,0.00,meteohub,2013-10-27 09:39:00,
2013-10-27 02:44:00,48.7,45.3,30.07,WSW,255,10.0,10.0,88,0.00,,,0.00,meteohub,2013-10-27 09:44:00,
2013-10-27 02:49:00,49.1,45.7,30.06,WSW,252,11.0,15.0,88,0.00,,,0.00,meteohub,2013-10-27 09:49:00,
2013-10-27 02:54:00,49.3,45.9,30.05,West,259,12.0,15.0,88,0.00,,,0.00,meteohub,2013-10-27 09:54:00,
2013-10-27 02:59:00,49.3,45.9,30.04,SSW,210,13.0,16.0,88,0.00,,,0.00,meteohub,2013-10-27 09:59:00,
2013-10-27 03:04:00,49.5,45.7,30.04,WSW,258,10.0,16.0,87,0.00,,,0.00,meteohub,2013-10-27 10:04:00,
2013-10-27 03:09:00,49.5,45.7,30.04,West,277,5.0,16.0,87,0.00,,,0.00,meteohub,2013-10-27 10:09:00,
2013-10-27 03:14:00,49.5,45.7,30.03,SW,233,9.0,16.0,87,0.00,,,0.00,meteohub,2013-10-27 10:14:00,
2013-10-27 03:19:00,49.6,45.9,30.03,WSW,250,13.0,16.0,87,0.00,,,0.00,meteohub,2013-10-27 10:19:00,
2013-10-27 03:24:00,49.5,45.5,30.03,WSW,243,1.0,16.0,86,0.00,,,0.00,meteohub,2013-10-27 10:24:00,
2013-10-27 03:29:00,49.6,45.9,30.03,West,273,5.0,18.0,87,0.00,,,0.00,meteohub,2013-10-27 10:29:00,
2013-10-27 03:34:00,49.6,45.7,30.02,SSW,211,11.0,18.0,86,0.00,,,0.00,meteohub,2013-10-27 10:34:00,
2013-10-27 03:39:00,49.6,45.7,30.01,WSW,251,15.0,17.0,86,0.00,,,0.00,meteohub,2013-10-27 10:39:00,
2013-10-27 03:44:00,49.6,45.7,30.01,West,265,13.0,17.0,86,0.00,,,0.00,meteohub,2013-10-27 10:44:00,
2013-10-27 03:49:00,49.8,45.9,30.02,WSW,247,9.0,19.0,86,0.00,,,0.00,meteohub,2013-10-27 10:49:00,
2013-10-27 03:54:00,49.8,45.9,30.02,West,263,6.0,19.0,86,0.00,,,0.00,meteohub,2013-10-27 10:54:00,
2013-10-27 03:59:00,49.8,45.9,30.02,WNW,292,5.0,19.0,86,0.00,,,0.00,meteohub,2013-10-27 10:59:00,
2013-10-27 04:04:00,50.2,45.9,30.01,NW,319,2.0,19.0,85,0.00,,,0.00,meteohub,2013-10-27 11:04:00,
2013-10-27 04:09:00,50.4,45.7,30.01,West,270,7.0,18.0,84,0.00,,,0.00,meteohub,2013-10-27 11:09:00,
2013-10-27 04:15:00,50.7,45.7,30.01,SW,217,5.0,18.0,83,0.00,,,0.00,meteohub,2013-10-27 11:15:00,
2013-10-27 04:20:00,50.5,45.5,30.00,NW,321,5.0,22.0,83,0.00,,,0.00,meteohub,2013-10-27 11:20:00,
2013-10-27 04:25:00,50.4,45.3,30.00,West,268,12.0,22.0,83,0.00,,,0.00,meteohub,2013-10-27 11:25:00,
2013-10-27 04:30:00,50.4,45.7,30.00,WSW,248,7.0,22.0,84,0.00,,,0.00,meteohub,2013-10-27 11:30:00,
2013-10-27 04:35:00,50.2,45.5,30.01,WSW,249,5.0,22.0,84,0.00,,,0.00,meteohub,2013-10-27 11:35:00,
2013-10-27 04:40:00,50.4,45.7,30.00,SW,229,5.0,16.0,84,0.00,,,0.00,meteohub,2013-10-27 11:40:00,
2013-10-27 04:45:00,50.4,46.0,30.00,West,275,0.0,16.0,85,0.00,,,0.00,meteohub,2013-10-27 11:45:00,
2013-10-27 04:50:00,50.4,46.0,30.01,WNW,296,2.0,16.0,85,0.00,,,0.00,meteohub,2013-10-27 11:50:00,
2013-10-27 04:55:00,50.4,46.0,30.00,NW,311,7.0,16.0,85,0.00,,,0.00,meteohub,2013-10-27 11:55:00,
2013-10-27 05:00:00,50.5,45.9,30.01,West,263,3.0,16.0,84,0.00,,,0.00,meteohub,2013-10-27 12:00:00,
2013-10-27 05:05:00,50.5,45.9,30.01,SW,232,4.0,16.0,84,0.00,,,0.00,meteohub,2013-10-27 12:05:00,
2013-10-27 05:10:00,50.4,45.3,30.00,WNW,299,2.0,16.0,83,0.00,,,0.00,meteohub,2013-10-27 12:10:00,
2013-10-27 05:15:00,50.4,45.3,30.00,West,276,4.0,16.0,83,0.00,,,0.00,meteohub,2013-10-27 12:15:00,
2013-10-27 05:20:00,50.4,45.3,30.00,NW,306,5.0,15.0,83,0.00,,,0.00,meteohub,2013-10-27 12:20:00,
2013-10-27 05:25:00,50.4,45.7,30.00,WSW,257,4.0,15.0,84,0.00,,,0.00,meteohub,2013-10-27 12:25:00,
2013-10-27 05:30:00,50.4,45.3,30.01,North,11,4.0,15.0,83,0.00,,,0.00,meteohub,2013-10-27 12:30:00,
2013-10-27 05:32:00,50.5,45.5,30.01,NNW,337,1.0,15.0,83,0.00,,,0.00,meteohub,2013-10-27 12:32:00,
2013-10-27 05:37:00,50.4,45.3,30.01,WNW,290,0.0,15.0,83,0.00,,,0.00,meteohub,2013-10-27 12:37:00,
2013-10-27 05:42:00,50.4,45.3,30.01,WNW,290,0.0,10.0,83,0.00,,,0.00,meteohub,2013-10-27 12:42:00,
2013-10-27 05:47:00,50.2,45.1,30.00,WSW,254,0.0,10.0,83,0.00,,,0.00,meteohub,2013-10-27 12:47:00,
2013-10-27 05:52:00,50.2,45.5,30.01,WNW,300,3.0,10.0,84,0.00,,,0.00,meteohub,2013-10-27 12:52:00,
2013-10-27 05:57:00,50.2,45.5,30.01,West,260,3.0,10.0,84,0.00,,,0.00,meteohub,2013-10-27 12:57:00,
2013-10-27 06:02:00,50.2,45.1,30.01,NW,309,6.0,11.0,83,0.00,,,0.00,meteohub,2013-10-27 13:02:00,
2013-10-27 06:07:00,50.0,45.0,30.01,North,350,1.0,11.0,83,0.00,,,0.00,meteohub,2013-10-27 13:07:00,
2013-10-27 06:12:00,49.8,44.8,30.01,NNW,336,0.0,11.0,83,0.00,,,0.00,meteohub,2013-10-27 13:12:00,
2013-10-27 06:17:00,49.8,44.8,30.01,West,276,1.0,11.0,83,0.00,,,0.00,meteohub,2013-10-27 13:17:00,
2013-10-27 06:22:00,49.6,44.8,30.01,North,350,0.0,6.0,83,0.00,,,0.00,meteohub,2013-10-27 13:22:00,
2013-10-27 06:27:00,49.5,44.8,30.01,North,350,0.0,6.0,84,0.00,,,0.00,meteohub,2013-10-27 13:27:00,
2013-10-27 06:32:00,49.3,44.6,30.01,North,350,0.0,6.0,84,0.00,,,0.00,meteohub,2013-10-27 13:32:00,
2013-10-27 06:37:00,48.9,44.2,30.01,North,350,0.0,6.0,84,0.00,,,0.00,meteohub,2013-10-27 13:37:00,
2013-10-27 06:42:00,48.7,44.4,30.01,North,350,0.0,6.0,85,0.00,,,0.00,meteohub,2013-10-27 13:42:00,
2013-10-27 06:47:00,48.4,44.1,30.01,North,350,0.0,0.0,85,0.00,,,0.00,meteohub,2013-10-27 13:47:00,
2013-10-27 06:52:00,48.0,44.1,30.01,North,350,1.0,0.0,86,0.00,,,0.00,meteohub,2013-10-27 13:52:00,
2013-10-27 06:57:00,47.8,43.9,30.01,North,350,0.0,0.0,86,0.00,,,0.00,meteohub,2013-10-27 13:57:00,
2013-10-27 07:02:00,47.8,43.9,30.01,North,351,0.0,0.0,86,0.00,,,0.00,meteohub,2013-10-27 14:02:00,
2013-10-27 07:07:00,47.7,43.7,30.01,NW,311,0.0,2.0,86,0.00,,,0.00,meteohub,2013-10-27 14:07:00,
2013-10-27 07:12:00,47.7,44.1,30.01,WNW,302,3.0,3.0,87,0.00,,,0.00,meteohub,2013-10-27 14:12:00,
2013-10-27 07:17:00,47.7,44.1,30.00,WNW,293,3.0,5.0,87,0.00,,,0.00,meteohub,2013-10-27 14:17:00,
2013-10-27 07:22:00,47.7,44.1,30.01,NW,323,3.0,5.0,87,0.00,,,0.00,meteohub,2013-10-27 14:22:00,
2013-10-27 07:27:00,47.8,44.4,30.01,NW,324,5.0,7.0,88,0.00,,,0.00,meteohub,2013-10-27 14:27:00,
2013-10-27 07:32:00,47.8,44.4,30.00,West,273,5.0,7.0,88,0.00,,,0.00,meteohub,2013-10-27 14:32:00,
2013-10-27 07:37:00,48.0,44.6,30.01,WNW,282,2.0,9.0,88,0.00,,,0.00,meteohub,2013-10-27 14:37:00,
2013-10-27 07:42:00,48.0,44.4,30.01,NW,312,0.0,9.0,87,0.00,,,0.00,meteohub,2013-10-27 14:42:00,
2013-10-27 07:47:00,47.8,44.2,30.01,WNW,302,1.0,9.0,87,0.00,,,0.00,meteohub,2013-10-27 14:47:00,
2013-10-27 07:52:00,47.7,44.1,30.00,West,277,0.0,9.0,87,0.00,,,0.00,meteohub,2013-10-27 14:52:00,
2013-10-27 07:58:00,47.7,44.1,30.00,WNW,292,6.0,6.0,87,0.00,,,0.00,meteohub,2013-10-27 14:58:00,
2013-10-27 08:03:00,47.7,44.2,30.00,WNW,303,1.0,5.0,88,0.00,,,0.00,meteohub,2013-10-27 15:03:00,
2013-10-27 08:08:00,47.7,44.2,30.00,NNW,328,2.0,6.0,88,0.00,,,0.00,meteohub,2013-10-27 15:08:00,
2013-10-27 08:13:00,47.7,44.2,30.01,WNW,299,1.0,6.0,88,0.00,,,0.00,meteohub,2013-10-27 15:13:00,
2013-10-27 08:18:00,47.5,44.1,30.00,WNW,291,0.0,6.0,88,0.00,,,0.00,meteohub,2013-10-27 15:18:00,
2013-10-27 08:23:00,47.3,43.9,30.00,NNW,334,0.0,6.0,88,0.00,,,0.00,meteohub,2013-10-27 15:23:00,
2013-10-27 08:28:00,47.1,43.7,30.00,NNW,331,0.0,5.0,88,0.00,,,0.00,meteohub,2013-10-27 15:28:00,
2013-10-27 08:33:00,47.1,44.1,30.00,NNW,331,0.0,5.0,89,0.00,,,0.00,meteohub,2013-10-27 15:33:00,
2013-10-27 08:38:00,47.1,44.1,30.01,WSW,257,0.0,5.0,89,0.00,,,0.00,meteohub,2013-10-27 15:38:00,
2013-10-27 08:43:00,47.1,44.1,30.01,WSW,250,1.0,5.0,89,0.00,,,0.00,meteohub,2013-10-27 15:43:00,
2013-10-27 08:48:00,47.1,44.1,30.01,WSW,250,0.0,3.0,89,0.00,,,0.00,meteohub,2013-10-27 15:48:00,
2013-10-27 08:53:00,46.8,43.7,30.01,WSW,251,0.0,3.0,89,0.00,,,0.00,meteohub,2013-10-27 15:53:00,
2013-10-27 08:58:00,46.6,43.5,30.01,WSW,250,0.0,2.0,89,0.00,,,0.00,meteohub,2013-10-27 15:58:00,
2013-10-27 09:03:00,46.4,43.3,30.01,WSW,250,0.0,2.0,89,0.00,,,0.00,meteohub,2013-10-27 16:03:00,
2013-10-27 09:08:00,46.2,43.2,30.01,WSW,250,0.0,1.0,89,0.00,,,0.00,meteohub,2013-10-27 16:08:00,
2013-10-27 09:13:00,46.2,43.2,30.01,WSW,250,0.0,1.0,89,0.00,,,0.00,meteohub,2013-10-27 16:13:00,
2013-10-27 09:18:00,46.2,43.2,30.01,North,350,0.0,1.0,89,0.00,,,0.00,meteohub,2013-10-27 16:18:00,
2013-10-27 09:23:00,46.6,43.5,30.01,North,351,0.0,1.0,89,0.00,,,0.00,meteohub,2013-10-27 16:23:00,
2013-10-27 09:28:00,46.8,43.7,30.01,North,351,0.0,3.0,89,0.00,,,0.00,meteohub,2013-10-27 16:28:00,
2013-10-27 09:33:00,46.8,43.7,30.01,NW,306,0.0,3.0,89,0.00,,,0.00,meteohub,2013-10-27 16:33:00,
2013-10-27 09:38:00,47.3,44.2,30.01,West,261,1.0,2.0,89,0.00,,,0.00,meteohub,2013-10-27 16:38:00,
2013-10-27 09:43:00,47.7,44.2,30.01,NW,313,0.0,2.0,88,0.00,,,0.00,meteohub,2013-10-27 16:43:00,
2013-10-27 09:48:00,48.0,44.6,30.01,WSW,242,0.0,3.0,88,0.00,,,0.00,meteohub,2013-10-27 16:48:00,
2013-10-27 09:53:00,48.4,45.0,30.01,WSW,242,2.0,3.0,88,0.00,,,0.00,meteohub,2013-10-27 16:53:00,
2013-10-27 09:58:00,48.6,44.8,30.01,NW,326,0.0,3.0,87,0.00,,,0.00,meteohub,2013-10-27 16:58:00,
2013-10-27 10:03:00,48.7,45.0,30.01,NW,321,0.0,3.0,87,0.00,,,0.00,meteohub,2013-10-27 17:03:00,
2013-10-27 10:08:00,48.9,45.1,30.01,WSW,245,3.0,5.0,87,0.00,,,0.00,meteohub,2013-10-27 17:08:00,
2013-10-27 10:13:00,49.3,45.3,30.01,SW,234,3.0,5.0,86,0.00,,,0.00,meteohub,2013-10-27 17:13:00,
2013-10-27 10:18:00,49.5,45.5,30.01,WSW,257,0.0,5.0,86,0.00,,,0.00,meteohub,2013-10-27 17:18:00,
2013-10-27 10:23:00,49.6,45.7,30.00,WSW,257,0.0,5.0,86,0.00,,,0.00,meteohub,2013-10-27 17:23:00,
2013-10-27 10:28:00,49.8,45.9,30.01,WSW,254,0.0,5.0,86,0.00,,,0.00,meteohub,2013-10-27 17:28:00,
2013-10-27 10:33:00,50.2,45.9,30.01,SW,228,0.0,5.0,85,0.00,,,0.00,meteohub,2013-10-27 17:33:00,
2013-10-27 10:38:00,50.2,45.5,30.00,SW,223,0.0,3.0,84,0.00,,,0.00,meteohub,2013-10-27 17:38:00,
2013-10-27 10:43:00,50.4,45.7,30.01,SW,223,0.0,3.0,84,0.00,,,0.00,meteohub,2013-10-27 17:43:00,
2013-10-27 10:48:00,50.4,45.7,30.00,SW,219,0.0,3.0,84,0.00,,,0.00,meteohub,2013-10-27 17:48:00,
2013-10-27 10:53:00,50.5,45.5,30.00,SW,219,0.0,3.0,83,0.00,,,0.00,meteohub,2013-10-27 17:53:00,
2013-10-27 10:58:00,50.9,45.9,30.00,SSE,163,2.0,2.0,83,0.00,,,0.00,meteohub,2013-10-27 17:58:00,
2013-10-27 11:03:00,51.4,46.2,30.00,SE,141,3.0,3.0,82,0.00,,,0.00,meteohub,2013-10-27 18:03:00,
2013-10-27 11:08:00,51.4,45.9,30.00,SSE,153,0.0,4.0,81,0.00,,,0.00,meteohub,2013-10-27 18:08:00,
2013-10-27 11:13:00,51.6,46.0,30.00,SSE,153,0.0,4.0,81,0.00,,,0.00,meteohub,2013-10-27 18:13:00,
2013-10-27 11:18:00,52.0,46.0,30.00,SSE,153,0.0,5.0,80,0.00,,,0.00,meteohub,2013-10-27 18:18:00,
2013-10-27 11:23:00,52.5,46.2,30.00,SSE,150,3.0,5.0,79,0.00,,,0.00,meteohub,2013-10-27 18:23:00,
2013-10-27 11:28:00,52.9,45.9,30.00,SE,146,0.0,5.0,77,0.00,,,0.00,meteohub,2013-10-27 18:28:00,
2013-10-27 11:33:00,53.1,46.4,29.99,SE,145,2.0,5.0,78,0.00,,,0.00,meteohub,2013-10-27 18:33:00,
2013-10-27 11:38:00,53.4,46.4,29.99,SE,146,2.0,5.0,77,0.00,,,0.00,meteohub,2013-10-27 18:38:00,
2013-10-27 11:43:00,54.0,46.6,30.00,SW,228,2.0,5.0,76,0.00,,,0.00,meteohub,2013-10-27 18:43:00,
2013-10-27 11:48:00,54.0,46.6,29.99,SW,228,4.0,4.0,76,0.00,,,0.00,meteohub,2013-10-27 18:48:00,
2013-10-27 11:53:00,54.1,46.4,29.99,SW,230,0.0,4.0,75,0.00,,,0.00,meteohub,2013-10-27 18:53:00,
2013-10-27 11:58:00,54.3,46.2,29.99,West,269,0.0,4.0,74,0.00,,,0.00,meteohub,2013-10-27 18:58:00,
2013-10-27 12:04:00,54.5,46.0,30.00,West,279,0.0,4.0,73,0.00,,,0.00,meteohub,2013-10-27 19:04:00,
2013-10-27 12:09:00,54.7,46.2,29.99,West,261,0.0,4.0,73,0.00,,,0.00,meteohub,2013-10-27 19:09:00,
2013-10-27 12:14:00,54.7,46.2,29.99,West,267,1.0,4.0,73,0.00,,,0.00,meteohub,2013-10-27 19:14:00,
2013-10-27 12:19:00,54.9,46.8,29.99,West,267,0.0,4.0,74,0.00,,,0.00,meteohub,2013-10-27 19:19:00,
2013-10-27 12:24:00,55.2,46.4,29.99,SW,220,0.0,3.0,72,0.00,,,0.00,meteohub,2013-10-27 19:24:00,
2013-10-27 12:29:00,55.4,46.2,29.99,West,263,0.0,3.0,71,0.00,,,0.00,meteohub,2013-10-27 19:29:00,
2013-10-27 12:34:00,55.6,47.1,29.99,West,263,0.0,3.0,73,0.00,,,0.00,meteohub,2013-10-27 19:34:00,
2013-10-27 12:39:00,55.4,46.6,29.99,WSW,244,0.0,3.0,72,0.00,,,0.00,meteohub,2013-10-27 19:39:00,
2013-10-27 12:44:00,55.6,46.8,29.99,WNW,283,2.0,3.0,72,0.00,,,0.00,meteohub,2013-10-27 19:44:00,
2013-10-27 12:49:00,55.0,46.2,29.98,WSW,254,3.0,3.0,72,0.00,,,0.00,meteohub,2013-10-27 19:49:00,
2013-10-27 12:54:00,55.4,47.3,29.98,WSW,250,3.0,4.0,74,0.00,,,0.00,meteohub,2013-10-27 19:54:00,
2013-10-27 12:59:00,55.8,47.7,29.98,WSW,256,0.0,4.0,74,0.00,,,0.00,meteohub,2013-10-27 19:59:00,
2013-10-27 13:04:00,55.8,47.3,29.98,West,269,4.0,5.0,73,0.00,,,0.00,meteohub,2013-10-27 20:04:00,
2013-10-27 13:09:00,55.6,46.8,29.98,West,269,0.0,5.0,72,0.00,,,0.00,meteohub,2013-10-27 20:09:00,
2013-10-27 13:14:00,55.8,46.6,29.98,WSW,237,4.0,7.0,71,0.00,,,0.00,meteohub,2013-10-27 20:14:00,
2013-10-27 13:19:00,55.9,46.2,29.98,SW,230,0.0,7.0,70,0.00,,,0.00,meteohub,2013-10-27 20:19:00,
2013-10-27 13:24:00,56.3,46.2,29.97,West,265,0.0,5.0,69,0.00,,,0.00,meteohub,2013-10-27 20:24:00,
2013-10-27 13:29:00,56.8,47.1,29.97,West,276,0.0,4.0,70,0.00,,,0.00,meteohub,2013-10-27 20:29:00,
2013-10-27 13:34:00,57.4,46.9,29.97,WSW,257,4.0,4.0,68,0.00,,,0.00,meteohub,2013-10-27 20:34:00,
2013-10-27 13:39:00,57.6,47.1,29.97,WSW,255,0.0,4.0,68,0.00,,,0.00,meteohub,2013-10-27 20:39:00,
2013-10-27 13:44:00,57.7,47.3,29.98,WSW,242,2.0,5.0,68,0.00,,,0.00,meteohub,2013-10-27 20:44:00,
2013-10-27 13:49:00,57.6,47.5,29.97,WSW,242,0.0,5.0,69,0.00,,,0.00,meteohub,2013-10-27 20:49:00,
2013-10-27 13:54:00,57.7,48.0,29.97,SSE,155,0.0,5.0,70,0.00,,,0.00,meteohub,2013-10-27 20:54:00,
2013-10-27 13:59:00,58.3,46.9,29.97,SSW,209,0.0,3.0,66,0.00,,,0.00,meteohub,2013-10-27 20:59:00,
2013-10-27 14:04:00,58.6,47.3,29.97,SSW,211,0.0,3.0,66,0.00,,,0.00,meteohub,2013-10-27 21:04:00,
2013-10-27 14:09:00,59.0,46.4,29.97,SSW,211,0.0,3.0,63,0.00,,,0.00,meteohub,2013-10-27 21:09:00,
2013-10-27 14:14:00,59.0,46.0,29.97,SSW,211,0.0,2.0,62,0.00,,,0.00,meteohub,2013-10-27 21:14:00,
2013-10-27 14:19:00,59.5,46.6,29.97,SSW,199,0.0,3.0,62,0.00,,,0.00,meteohub,2013-10-27 21:19:00,
2013-10-27 14:24:00,59.7,46.8,29.97,WSW,248,0.0,3.0,62,0.00,,,0.00,meteohub,2013-10-27 21:24:00,
2013-10-27 14:29:00,59.5,46.9,29.97,WSW,248,1.0,3.0,63,0.00,,,0.00,meteohub,2013-10-27 21:29:00,
2013-10-27 14:34:00,59.0,46.4,29.97,WSW,238,0.0,3.0,63,0.00,,,0.00,meteohub,2013-10-27 21:34:00,
2013-10-27 14:39:00,59.0,46.8,29.97,WSW,237,0.0,4.0,64,0.00,,,0.00,meteohub,2013-10-27 21:39:00,
2013-10-27 14:44:00,59.0,46.4,29.97,WSW,238,0.0,4.0,63,0.00,,,0.00,meteohub,2013-10-27 21:44:00,
2013-10-27 14:49:00,59.7,47.5,29.97,SSE,167,0.0,3.0,64,0.00,,,0.00,meteohub,2013-10-27 21:49:00,
2013-10-27 14:54:00,59.7,47.1,29.97,South,184,0.0,3.0,63,0.00,,,0.00,meteohub,2013-10-27 21:54:00,
2013-10-27 15:00:00,60.1,47.8,29.97,SSE,167,0.0,5.0,64,0.00,,,0.00,meteohub,2013-10-27 22:00:00,
2013-10-27 15:04:00,60.3,48.0,29.97,SSE,167,0.0,5.0,64,0.00,,,0.00,meteohub,2013-10-27 22:04:00,
2013-10-27 15:09:00,60.3,47.7,29.97,South,174,0.0,4.0,63,0.00,,,0.00,meteohub,2013-10-27 22:09:00,
2013-10-27 15:15:00,60.4,47.3,29.97,South,173,0.0,4.0,62,0.00,,,0.00,meteohub,2013-10-27 22:15:00,
2013-10-27 15:20:00,60.8,47.7,29.97,South,173,0.0,4.0,62,0.00,,,0.00,meteohub,2013-10-27 22:20:00,
2013-10-27 15:25:00,61.2,47.7,29.97,South,173,0.0,4.0,61,0.00,,,0.00,meteohub,2013-10-27 22:25:00,
2013-10-27 15:30:00,61.3,46.9,29.97,South,174,0.0,1.0,59,0.00,,,0.00,meteohub,2013-10-27 22:30:00,
2013-10-27 15:35:00,61.9,48.2,29.98,East,94,0.0,1.0,61,0.00,,,0.00,meteohub,2013-10-27 22:35:00,
2013-10-27 15:40:00,62.1,48.0,29.98,East,94,0.0,3.0,60,0.00,,,0.00,meteohub,2013-10-27 22:40:00,
2013-10-27 15:45:00,62.2,48.2,29.98,East,94,0.0,3.0,60,0.00,,,0.00,meteohub,2013-10-27 22:45:00,
2013-10-27 15:50:00,62.2,48.2,29.98,SSW,211,0.0,1.0,60,0.00,,,0.00,meteohub,2013-10-27 22:50:00,
2013-10-27 15:55:00,61.9,47.5,29.98,SSW,209,0.0,1.0,59,0.00,,,0.00,meteohub,2013-10-27 22:55:00,
2013-10-27 16:00:00,61.9,47.8,29.98,South,182,0.0,1.0,60,0.00,,,0.00,meteohub,2013-10-27 23:00:00,
2013-10-27 16:05:00,62.2,48.2,29.98,South,173,0.0,1.0,60,0.00,,,0.00,meteohub,2013-10-27 23:05:00,
2013-10-27 16:10:00,61.9,47.5,29.98,South,174,0.0,1.0,59,0.00,,,0.00,meteohub,2013-10-27 23:10:00,
2013-10-27 16:15:00,61.3,47.3,29.98,South,174,0.0,1.0,60,0.00,,,0.00,meteohub,2013-10-27 23:15:00,
2013-10-27 16:20:00,61.3,47.8,29.98,South,174,0.0,1.0,61,0.00,,,0.00,meteohub,2013-10-27 23:20:00,
2013-10-27 16:25:00,61.3,47.3,29.98,South,174,0.0,1.0,60,0.00,,,0.00,meteohub,2013-10-27 23:25:00,
2013-10-27 16:30:00,61.2,47.7,29.98,South,174,0.0,1.0,61,0.00,,,0.00,meteohub,2013-10-27 23:30:00,
2013-10-27 16:35:00,61.0,47.8,29.99,South,173,0.0,1.0,62,0.00,,,0.00,meteohub,2013-10-27 23:35:00,
2013-10-27 16:40:00,60.4,47.3,29.99,South,173,0.0,1.0,62,0.00,,,0.00,meteohub,2013-10-27 23:40:00,
2013-10-27 16:45:00,59.7,47.1,29.99,South,174,0.0,1.0,63,0.00,,,0.00,meteohub,2013-10-27 23:45:00,
2013-10-27 16:50:00,59.0,46.8,29.99,South,173,0.0,1.0,64,0.00,,,0.00,meteohub,2013-10-27 23:50:00,
2013-10-27 16:55:00,58.6,46.9,29.99,South,173,0.0,1.0,65,0.00,,,0.00,meteohub,2013-10-27 23:55:00,
2013-10-27 17:00:00,58.5,47.1,29.99,South,173,0.0,1.0,66,0.00,,,0.00,meteohub,2013-10-28 00:00:00,
2013-10-27 17:05:00,58.3,47.8,29.99,South,173,0.0,1.0,68,0.00,,,0.00,meteohub,2013-10-28 00:05:00,
2013-10-27 17:10:00,58.3,47.8,29.99,East,79,0.0,1.0,68,0.00,,,0.00,meteohub,2013-10-28 00:10:00,
2013-10-27 17:15:00,58.3,47.8,29.99,East,79,0.0,1.0,68,0.00,,,0.00,meteohub,2013-10-28 00:15:00,
2013-10-27 17:20:00,58.6,47.7,29.99,East,79,0.0,1.0,67,0.00,,,0.00,meteohub,2013-10-28 00:20:00,
2013-10-27 17:25:00,59.0,48.0,29.99,East,79,0.0,1.0,67,0.00,,,0.00,meteohub,2013-10-28 00:25:00,
2013-10-27 17:30:00,59.0,48.0,29.99,East,79,0.0,1.0,67,0.00,,,0.00,meteohub,2013-10-28 00:30:00,
2013-10-27 17:35:00,59.0,48.4,30.00,East,79,0.0,1.0,68,0.00,,,0.00,meteohub,2013-10-28 00:35:00,
2013-10-27 17:40:00,59.0,48.4,30.00,East,79,0.0,1.0,68,0.00,,,0.00,meteohub,2013-10-28 00:40:00,
2013-10-27 17:46:00,58.6,48.6,30.00,East,79,0.0,1.0,69,0.00,,,0.00,meteohub,2013-10-28 00:46:00,
2013-10-27 17:51:00,57.6,47.8,30.00,East,79,0.0,1.0,70,0.00,,,0.00,meteohub,2013-10-28 00:51:00,
2013-10-27 17:56:00,55.9,47.5,30.00,East,79,0.0,1.0,73,0.00,,,0.00,meteohub,2013-10-28 00:56:00,
2013-10-27 18:01:00,55.0,47.7,30.00,ENE,78,0.0,2.0,76,0.00,,,0.00,meteohub,2013-10-28 01:01:00,
2013-10-27 18:06:00,54.3,47.3,30.00,ENE,78,0.0,2.0,77,0.00,,,0.00,meteohub,2013-10-28 01:06:00,
2013-10-27 18:11:00,53.4,47.1,30.00,ENE,78,0.0,1.0,79,0.00,,,0.00,meteohub,2013-10-28 01:11:00,
2013-10-27 18:16:00,52.9,46.6,30.01,ENE,78,0.0,1.0,79,0.00,,,0.00,meteohub,2013-10-28 01:16:00,
2013-10-27 18:21:00,52.3,46.4,30.01,ENE,78,0.0,1.0,80,0.00,,,0.00,meteohub,2013-10-28 01:21:00,
2013-10-27 18:26:00,52.0,46.4,30.01,ENE,78,0.0,1.0,81,0.00,,,0.00,meteohub,2013-10-28 01:26:00,
2013-10-27 18:31:00,51.4,46.2,30.01,ENE,78,0.0,1.0,82,0.00,,,0.00,meteohub,2013-10-28 01:31:00,
2013-10-27 18:36:00,51.1,46.0,30.01,ENE,78,0.0,1.0,83,0.00,,,0.00,meteohub,2013-10-28 01:36:00,
2013-10-27 18:41:00,50.5,45.5,30.01,ENE,78,0.0,1.0,83,0.00,,,0.00,meteohub,2013-10-28 01:41:00,
2013-10-27 18:46:00,50.4,45.3,30.02,ENE,78,0.0,1.0,83,0.00,,,0.00,meteohub,2013-10-28 01:46:00,
2013-10-27 18:51:00,49.6,45.0,30.02,ENE,78,0.0,1.0,84,0.00,,,0.00,meteohub,2013-10-28 01:51:00,
2013-10-27 18:56:00,49.3,45.0,30.02,ENE,77,0.0,1.0,85,0.00,,,0.00,meteohub,2013-10-28 01:56:00,
2013-10-27 19:01:00,49.3,45.0,30.02,ENE,76,0.0,1.0,85,0.00,,,0.00,meteohub,2013-10-28 02:01:00,
2013-10-27 19:06:00,49.3,45.0,30.02,ENE,77,0.0,1.0,85,0.00,,,0.00,meteohub,2013-10-28 02:06:00,
2013-10-27 19:11:00,49.5,44.6,30.03,ENE,76,0.0,1.0,83,0.00,,,0.00,meteohub,2013-10-28 02:11:00,
2013-10-27 19:16:00,49.8,44.2,30.03,ENE,63,0.0,1.0,81,0.00,,,0.00,meteohub,2013-10-28 02:16:00,
2013-10-27 19:21:00,49.8,43.2,30.03,ENE,63,0.0,1.0,78,0.00,,,0.00,meteohub,2013-10-28 02:21:00,
2013-10-27 19:26:00,49.8,42.6,30.03,NE,46,0.0,1.0,76,0.00,,,0.00,meteohub,2013-10-28 02:26:00,
2013-10-27 19:31:00,50.9,43.3,30.04,NNE,20,0.0,1.0,75,0.00,,,0.00,meteohub,2013-10-28 02:31:00,
2013-10-27 19:36:00,52.2,44.1,30.04,NNE,12,0.0,1.0,74,0.00,,,0.00,meteohub,2013-10-28 02:36:00,
2013-10-27 19:41:00,52.2,44.1,30.04,East,82,2.0,2.0,74,0.00,,,0.00,meteohub,2013-10-28 02:41:00,
2013-10-27 19:46:00,49.8,43.0,30.04,East,82,0.0,1.0,77,0.00,,,0.00,meteohub,2013-10-28 02:46:00,
2013-10-27 19:51:00,48.7,42.4,30.04,East,82,0.0,3.0,79,0.00,,,0.00,meteohub,2013-10-28 02:51:00,
2013-10-27 19:56:00,47.8,41.9,30.04,East,82,0.0,3.0,80,0.00,,,0.00,meteohub,2013-10-28 02:56:00,
2013-10-27 20:01:00,47.1,41.4,30.04,East,82,0.0,1.0,80,0.00,,,0.00,meteohub,2013-10-28 03:01:00,
2013-10-27 20:06:00,46.9,40.8,30.04,East,82,0.0,1.0,79,0.00,,,0.00,meteohub,2013-10-28 03:06:00,
2013-10-27 20:11:00,46.9,41.2,30.04,East,82,0.0,3.0,80,0.00,,,0.00,meteohub,2013-10-28 03:11:00,
2013-10-27 20:16:00,46.8,41.0,30.04,East,82,0.0,3.0,80,0.00,,,0.00,meteohub,2013-10-28 03:16:00,
2013-10-27 20:21:00,46.6,41.0,30.04,East,82,0.0,3.0,81,0.00,,,0.00,meteohub,2013-10-28 03:21:00,
2013-10-27 20:26:00,46.9,41.7,30.04,ENE,70,0.0,3.0,82,0.00,,,0.00,meteohub,2013-10-28 03:26:00,
2013-10-27 20:31:00,47.8,42.6,30.05,ENE,70,0.0,3.0,82,0.00,,,0.00,meteohub,2013-10-28 03:31:00,
2013-10-27 20:37:00,48.4,42.4,30.05,ENE,69,0.0,3.0,80,0.00,,,0.00,meteohub,2013-10-28 03:37:00,
2013-10-27 20:42:00,48.7,42.3,30.05,ENE,69,0.0,2.0,78,0.00,,,0.00,meteohub,2013-10-28 03:42:00,
2013-10-27 20:47:00,49.3,42.4,30.05,ENE,70,0.0,2.0,77,0.00,,,0.00,meteohub,2013-10-28 03:47:00,
2013-10-27 20:52:00,49.5,41.5,30.05,ENE,70,0.0,1.0,74,0.00,,,0.00,meteohub,2013-10-28 03:52:00,
2013-10-27 20:57:00,49.3,41.4,30.05,ENE,69,0.0,1.0,74,0.00,,,0.00,meteohub,2013-10-28 03:57:00,
2013-10-27 21:01:00,49.3,41.7,30.05,ENE,70,0.0,1.0,75,0.00,,,0.00,meteohub,2013-10-28 04:01:00,
2013-10-27 21:06:00,48.6,41.4,30.05,ENE,70,0.0,1.0,76,0.00,,,0.00,meteohub,2013-10-28 04:06:00,
2013-10-27 21:11:00,48.7,41.9,30.05,SSE,162,0.0,3.0,77,0.00,,,0.00,meteohub,2013-10-28 04:11:00,
2013-10-27 21:16:00,50.0,42.1,30.05,ENE,74,0.0,3.0,74,0.00,,,0.00,meteohub,2013-10-28 04:16:00,
2013-10-27 21:21:00,50.7,42.1,30.05,ENE,74,0.0,5.0,72,0.00,,,0.00,meteohub,2013-10-28 04:21:00,
2013-10-27 21:26:00,50.5,42.3,30.05,ENE,74,0.0,5.0,73,0.00,,,0.00,meteohub,2013-10-28 04:26:00,
2013-10-27 21:31:00,49.8,41.5,30.05,ENE,74,0.0,3.0,73,0.00,,,0.00,meteohub,2013-10-28 04:31:00,
2013-10-27 21:36:00,48.7,41.2,30.05,ENE,74,0.0,3.0,75,0.00,,,0.00,meteohub,2013-10-28 04:36:00,
2013-10-27 21:41:00,48.4,41.5,30.05,ENE,74,0.0,1.0,77,0.00,,,0.00,meteohub,2013-10-28 04:41:00,
2013-10-27 21:46:00,48.2,41.4,30.06,ENE,74,0.0,1.0,77,0.00,,,0.00,meteohub,2013-10-28 04:46:00,
2013-10-27 21:51:00,47.1,40.6,30.06,ENE,74,0.0,3.0,78,0.00,,,0.00,meteohub,2013-10-28 04:51:00,
2013-10-27 21:56:00,46.9,40.8,30.06,ENE,74,0.0,3.0,79,0.00,,,0.00,meteohub,2013-10-28 04:56:00,
2013-10-27 22:01:00,47.5,41.4,30.06,ENE,74,0.0,3.0,79,0.00,,,0.00,meteohub,2013-10-28 05:01:00,
2013-10-27 22:06:00,48.7,40.1,30.06,East,84,0.0,3.0,72,0.00,,,0.00,meteohub,2013-10-28 05:06:00,
2013-10-27 22:12:00,49.8,41.5,30.06,East,84,0.0,4.0,73,0.00,,,0.00,meteohub,2013-10-28 05:12:00,
2013-10-27 22:17:00,49.8,41.2,30.06,East,84,0.0,4.0,72,0.00,,,0.00,meteohub,2013-10-28 05:17:00,
2013-10-27 22:22:00,50.0,40.3,30.06,East,84,0.0,4.0,69,0.00,,,0.00,meteohub,2013-10-28 05:22:00,
2013-10-27 22:27:00,50.7,40.5,30.06,East,84,0.0,4.0,68,0.00,,,0.00,meteohub,2013-10-28 05:27:00,
2013-10-27 22:32:00,50.7,40.5,30.06,East,84,0.0,1.0,68,0.00,,,0.00,meteohub,2013-10-28 05:32:00,
2013-10-27 22:37:00,50.5,39.9,30.06,East,84,0.0,1.0,67,0.00,,,0.00,meteohub,2013-10-28 05:37:00,
2013-10-27 22:42:00,50.2,39.2,30.06,ENE,60,0.0,1.0,66,0.00,,,0.00,meteohub,2013-10-28 05:42:00,
2013-10-27 22:47:00,49.8,37.8,30.06,ENE,61,0.0,1.0,63,0.00,,,0.00,meteohub,2013-10-28 05:47:00,
2013-10-27 22:52:00,48.9,37.8,30.06,ENE,61,0.0,3.0,65,0.00,,,0.00,meteohub,2013-10-28 05:52:00,
2013-10-27 22:57:00,47.8,36.3,30.06,ENE,61,0.0,3.0,64,0.00,,,0.00,meteohub,2013-10-28 05:57:00,
2013-10-27 23:02:00,48.2,35.8,30.06,ENE,60,0.0,1.0,62,0.00,,,0.00,meteohub,2013-10-28 06:02:00,
2013-10-27 23:07:00,48.9,35.2,30.06,ENE,61,0.0,1.0,59,0.00,,,0.00,meteohub,2013-10-28 06:07:00,
2013-10-27 23:12:00,49.5,33.4,30.06,ENE,61,0.0,1.0,54,0.00,,,0.00,meteohub,2013-10-28 06:12:00,
2013-10-27 23:17:00,50.4,34.9,30.06,East,101,0.0,1.0,55,0.00,,,0.00,meteohub,2013-10-28 06:17:00,
2013-10-27 23:22:00,49.8,36.9,30.06,ENE,78,2.0,3.0,61,0.00,,,0.00,meteohub,2013-10-28 06:22:00,
2013-10-27 23:27:00,48.4,36.7,30.06,ENE,78,0.0,3.0,64,0.00,,,0.00,meteohub,2013-10-28 06:27:00,
2013-10-27 23:32:00,47.3,35.8,30.06,ENE,78,0.0,3.0,64,0.00,,,0.00,meteohub,2013-10-28 06:32:00,
2013-10-27 23:37:00,46.9,36.1,30.06,ENE,76,0.0,3.0,66,0.00,,,0.00,meteohub,2013-10-28 06:37:00,
2013-10-27 23:42:00,47.1,36.3,30.06,ENE,76,0.0,3.0,66,0.00,,,0.00,meteohub,2013-10-28 06:42:00,
2013-10-27 23:47:00,47.3,36.1,30.06,ENE,75,0.0,3.0,65,0.00,,,0.00,meteohub,2013-10-28 06:47:00,
2013-10-27 23:52:00,47.5,36.0,30.06,ENE,76,0.0,1.0,64,0.00,,,0.00,meteohub,2013-10-28 06:52:00,
2013-10-27 23:57:00,47.5,35.6,30.06,ENE,76,0.0,1.0,63,0.00,,,0.00,meteohub,2013-10-28 06:57:00,